Content
SEND FEEDBACK

Daily
Averages
Monthly
Summary
Iran

SEMNAN, IRAN


Home > Middle East > Iran
Elevation: 3842 feet     Latitude: 35 33N     Longitude: 053 22E

WEATHER
 
SELECT A DAY
Number of Records: 53,421;   Date Range: 11/3/03 - 8/31/14
 
SHARE

PRINT THIS DATA

[ ← Previous Day ]
WEATHER ALMANAC - FEBRUARY 13, 2013
[ Next Day → ]
[ °C ]   °F
Weather ElementAverageHighLow
Temperature45.7 °F52 °F (3:30 pm)41 °F (4:30 am)
Dewpoint31.5 °F41 °F (2:30 am)15.8 °F (11:30 pm)
Humidity59.4 %93 % (2:30 am)20 % (9:30 pm)
Barometer30.00 in30.04 in (11:30 am)29.98 in (2:30 am)
Wind Speed4.4 mph11.5 mph (7:30 pm)
Weather ElementAverage
Visibility6.3 mi
Wind DirectionSSE (170 °)

Weather ElementTotal
Precipitation---
Heating Degree Days18.5 (Base 65)
Averaged from 19 records on February 13, 2013
WEATHER CONDITIONS BREAKOUT
WIND DIRECTION BREAKOUT
WEATHER BY HOUR - FEBRUARY 13, 2013
[ °C ]   °F
Local TimeTemperatureDewpointHumidityBarometerVisibilityWind DirectionWind SpeedGust SpeedPrecipitationEventsConditions
2:30 AM42.8 °F41.0 °F93 %29.98 in6.2 miNW (320°)2.3 mphOvercast
3:30 AM43.0 °F40.0 °F83 %29.98 in6.0 miCalmPartly Cloudy
4:30 AM41.0 °F39.2 °F93 %29.98 in6.2 miCalmScattered Clouds
5:30 AM41.0 °F37.4 °F87 %29.98 in6.2 miNNW (340°)2.3 mphScattered Clouds
7:30 AM41.0 °F37.4 °F87 %29.98 in6.2 miNorth (350°)2.3 mphPartly Cloudy
8:30 AM46.4 °F39.2 °F76 %29.98 in6.2 miENE (60°)2.3 mphPartly Cloudy
9:30 AM49.0 °F40.0 °F63 %29.99 in7.0 miSSW (210°)2.2 mphScattered Clouds
10:30 AM48.2 °F41.0 °F76 %30.01 in6.2 miSouth (180°)4.6 mphMostly Cloudy
11:30 AM46.4 °F37.4 °F71 %30.04 in5.0 miEast (100°)2.3 mphRainLight Rain Showers
1:30 PM48.2 °F32.0 °F54 %30.01 in6.2 miESE (120°)4.6 mphMostly Cloudy
2:30 PM48.2 °F30.2 °F50 %30.01 in6.2 miEast (90°)6.9 mphMostly Cloudy
3:30 PM52.0 °F33.0 °F37 %29.98 in7.0 miSouth (180°)6.7 mphPartly Cloudy
4:30 PM50.0 °F33.8 °F54 %30.01 in6.2 miCalmPartly Cloudy
5:30 PM48.2 °F28.4 °F46 %30.01 in6.2 miNNE (30°)4.6 mphScattered Clouds
7:30 PM46.4 °F19.4 °F34 %30.01 in6.2 miNorth (360°)11.5 mphScattered Clouds
8:30 PM44.6 °F17.6 °F34 %30.01 in6.2 miNorth (360°)11.5 mphScattered Clouds
9:30 PM45.0 °F17.0 °F20 %30.02 in7.0 miNorth8.9 mphScattered Clouds
10:30 PM44.6 °F19.4 °F37 %30.04 in6.2 miNNW (330°)6.9 mphPartly Cloudy
11:30 PM42.8 °F15.8 °F34 %30.04 in6.2 miNNE (30°)4.6 mphPartly Cloudy
Hourly data recorded from OIIS, located miles away from Semnan, Iran







STORIES FROM OUR PARTNERS